Regional Weather Roundup
Issued by NWS

Home | Current Version | Previous Version | Graphics & Text | Print | Product List | Glossary On
Versions: 1 2 3 4 5 6 7 8 9 10 11 12 13 14 15 16 17 18 19 20 21 22 23 24 25 26 27 28 29 30 31 32 33 34 35 36 37 38 39 40 41 42 43 44 45 46 47 48 49 50
000
ASUS43 KDTX 240210
RWRMI
MICHIGAN HOURLY REGIONAL WEATHER ROUNDUP
NATIONAL WEATHER SERVICE DETROIT/PONTIAC MI
1000 PM EDT SAT MAY 23 2015

NOTE: "FAIR" INDICATES FEW OR NO CLOUDS BELOW 12,000 FEET WITH NO
SIGNIFICANT WEATHER AND/OR OBSTRUCTION TO VISIBILITY.

MIZ047>049-052>055-059>063-066>070-074>076-081>083-240300-
SOUTHEAST LOWER MICHIGAN

CITY           SKY/WX    TMP DP  RH WIND       PRES   REMARKS
ADRIAN         CLEAR     64  45  49 SE3       30.27R
ALMA           CLEAR     58  42  54 CALM      30.25R
ANN ARBOR      CLEAR     59  42  53 CALM      30.28R
BAD AXE        CLEAR     55  39  55 CALM      30.24R
CARO           CLEAR     50  42  74 CALM      30.23S
DETROIT CITY   CLEAR     62  40  44 S7        30.27R
DETROIT        PTCLDY    61  42  49 S6        30.28R
FLINT          CLEAR     65  35  33 S6        30.25S
GROSSE ILE     CLEAR     59  45  58 CALM      30.26S
HILLSDALE      CLEAR     61  47  58 CALM      30.27R
HOWELL         CLEAR     62  37  39 CALM      30.26R

CITY           SKY/WX    TMP DP  RH WIND       PRES   REMARKS
JACKSON        CLEAR     63  43  48 CALM      30.26R
LAMBERTVILLE   CLEAR     59  46  63 CALM      30.28R
LANSING        CLEAR     65  41  41 CALM      30.25R
LAPEER         FAIR      52  43  71 CALM      30.25S
MASON          CLEAR     59  42  52 CALM      30.26R
MONROE         CLEAR     61  45  55 CALM      30.26S
MT. CLEMENS    CLEAR     56  46  70 S7        30.25R
PONTIAC        CLEAR     64  39  39 S5        30.27R
PORT HOPE        N/A     64  36  35 S3        30.21S
PORT HURON     CLEAR     52  43  71 CALM      30.27R
TRI CITIES     CLEAR     66  38  35 SW5       30.24R
MIDLAND        FAIR      58  41  51 CALM      30.22R
TROY           CLEAR     67  37  32 SW5       30.29R
SAGINAW HB     CLEAR     61  36  39 S5        30.24R
$$
MIZ043>046-050>051-056>058-064>065-071>073-077>080-240300-
SOUTHWEST LOWER MICHIGAN

CITY           SKY/WX    TMP DP  RH WIND       PRES   REMARKS
BATTLE CREEK   CLEAR     65  46  50 CALM      30.25R
BENTON HARBOR  PTCLDY    61  48  62 E3        30.21S
BIG RAPIDS     CLEAR     59  37  44 CALM      30.23S
COLDWATER      PTCLDY    58  49  73 SE3       30.25S
FREMONT        FAIR      60  39  46 CALM      30.22S
HOLLAND        CLEAR     63  50  62 CALM      30.23S
GRAND RAPIDS   PTCLDY    65  42  43 CALM      30.23S
IONIA          FAIR      64  40  41 CALM      30.24R
KALAMAZOO      CLEAR     63  46  54 NW3       30.24R
LUDINGTON      CLEAR     56  43  61 CALM      30.22S
MARSHALL       CLEAR     61  46  57 CALM      30.25R
MOUNT PLEASANT CLEAR     59  47  64 CALM      30.23S
MUSKEGON       MOCLDY    63  42  46 SE3       30.22F
SOUTH HAVEN    CLEAR     60  48  63 CALM      30.22S
$$
MIZ016>042-240300-
NORTHERN LOWER MICHIGAN

CITY           SKY/WX    TMP DP  RH WIND       PRES   REMARKS
ALPENA         PTCLDY    59  39  47 CALM      30.19R
BEAVER ISLAND  CLEAR     58  30  33 SW15G25   30.18R
BELLAIRE       PTCLDY    54  43  66 CALM      30.20S
CADILLAC       PTCLDY    58  38  47 SW3       30.23S
CHARLEVOIX     PTCLDY    62  38  40 SW8       30.21S
FRANKFORT      MOCLDY    60  33  36 CALM      30.20S
GAYLORD        CLEAR     61  35  37 SW3       30.21S
GRAYLING       PTCLDY    54  37  54 CALM      30.23S
HARBOR SPRINGS CLEAR     53  39  59 W3        30.19R
HOUGHTON LAKE  PTCLDY    58  42  55 CALM      30.23R
MANISTEE       PTCLDY    55  37  50 CALM      30.22S
OSCODA         PTCLDY    61  41  48 SW7       30.20R
PELLSTON       LGT RAIN  55  37  50 N5        30.18S
ROGERS CITY    CLEAR     64  37  36 SW6       30.18S
TRAVERSE CITY  PTCLDY    66  37  34 SW5       30.19S
$$
MIZ007>008-015-240300-
EASTERN UPPER MICHIGAN

CITY           SKY/WX    TMP DP  RH WIND       PRES   REMARKS
KINROSS        CLEAR     57  30  35 W10G16    30.17R
MACKINAC ISLAN CLEAR     57  36  44 W15G23    30.16S
NEWBERRY       PTCLDY    58  35  42 SW15      30.16R
S. S. MARIE    PTCLDY    58  33  39 W9        30.17R
MUNISING         N/A     66  42  41 S6        30.13R
$$
MIZ004>006-011>014-085-240300-
CENTRAL UPPER MICHIGAN

CITY           SKY/WX    TMP DP  RH WIND       PRES   REMARKS
MANISTIQUE     PTCLDY    48  39  70 S9        30.15S
ESCANABA       PTCLDY    61  41  48 SW14G20   30.14R
MENOMINEE      CLEAR     66  39  37 SW6       30.16R
SAWYER-GWINN   CLEAR     68  36  30 E6        30.14R
$$
MIZ001>003-009>011-084-240300-
WESTERN UPPER MICHIGAN

CITY           SKY/WX    TMP DP  RH WIND       PRES   REMARKS
IRON MOUNTAIN  PTCLDY    69  38  32 SW5       30.15R
HOUGHTON       CLEAR     64  37  36 W7        30.11R
COPPER HARBOR    N/A     71  32  23 VRB3      30.08R
IRONWOOD       MOCLDY    64  41  42 SW8       30.14R
$$

ABBREVIATIONS USED IN REMARKS
   TC - TEMPERATURE IN CELSIUS
  WCI - WIND CHILL INDEX
   HX - HEAT INDEX
  VSB - VISIBILITY




USA.gov is the U.S. government's official web portal to all federal, state and local government web resources and services.